Location: Rancho Del Sol Observatory
(38.7214°N, 120.6350°W)
Time: 09:59:23
(UTC-08:00)

Courier 1B - Pass Details

Date: 26 January 2020
Orbit: 962 x 1209 km, 28.3° (Epoch: 17 February)

Event Time Altitude Azimuth Distance (km) Brightness Sun altitude
Exits shadow 03:35:33 25° 130° (SE) 2,125 9.4 -42.4°
Drops below altitude 10° 03:39:06 10° 110° (ESE) 3,081 10.6 -41.8°
Sets 03:42:14 0° 102° (ESE) 4,070 11.5 -41.1°
